Погода в Протопоповке

Украина / Харьковская область     49°14′33″N   36°54′48″E
темп.,
°C
ветер,
м/с
пор.,
м/с
влажн.,
%
обл.,
%
осадки,
мм/ч
давл.,
гПа
погр.,
м
9 марта, вт
вт923:00−2зсз3783100 0.0 1011290
02:00−3з368350 0.0 1012226
05:00−3з4108691 0.2 1012667
08:00−2сз587493 0.3 1014882
11:000сз5754100 0.1 10151423
14:00−1сз5652100 0.1 10171508
17:00−2сз4657100 0.1 10191210
20:00−4ссз3667100 0.1 1021728
10 марта, ср
ср1023:00−5ссз466323 0.0 1023990
02:00−5ссз355914 0.0 1024946
05:00−6ссз35590 0.0 1025830
08:00−5ссз34522 0.0 1026762
11:00−3с233881 0.0 1026943
14:00−1с223289 0.0 10261181
17:00−3с1239100 0.0 1025125
20:00−4ссв124252 0.0 102628
11 марта, чт
чт1123:00−4св22460 0.0 102593
02:00−5св22490 0.0 102669
05:00−6св24530 0.0 1026130
08:00−4всв24440 0.0 1027617
11:00−1всв34390 0.0 10271292
14:00−1всв444231 0.0 10271489
17:00−4всв565299 0.0 10271012
20:00−5в464753 0.0 1029792
12 марта, пт
пт1223:00−7в46340 0.0 1030664
02:00−8в46380 0.0 1030594
05:00−9в46390 0.0 1031497
08:00−8вюв46350 0.0 1032615
11:00−5юв46265 0.0 1031862
14:00−3ююв452348 0.0 10301071
17:00−3ююв4727100 0.0 10291031
20:00−4ююв493275 0.0 1029697
13 марта, сб
сб1323:00−5ю593078 0.0 1029763
02:00−5ю5103589 0.0 1028749
05:00−5ююв51140100 0.0 1028629
08:00−3ю61146100 0.0 1028707
11:000ю6104799 0.0 1027885
14:00+2ю684195 0.0 1026981
17:00+1ю484980 0.0 1025462
20:00−1ююв4105490 0.0 1025445